Regional Weather Roundup
Issued by NWS Jackson, KY

Home | Current Version | Previous Version | Graphics & Text | Print | Product List | Glossary On
Versions: 1 2 3 4 5 6 7 8 9 10 11 12 13 14 15 16 17 18 19 20 21 22 23 24 25 26 27
000
ASUS43 KJKL 281910
RWRJKL

EAST KENTUCKY HOURLY WEATHER ROUNDUP
NATIONAL WEATHER SERVICE JACKSON KY
300 PM EDT WED SEP 28 2016

NOTE: "FAIR" INDICATES FEW OR NO CLOUDS BELOW 12,000 FEET WITH
NO SIGNIFICANT WEATHER AND/OR OBSTRUCTIONS TO VISIBILITY.

* THESE REPORTS ARE NOT UNDER NWS QUALITY CONTROL AND MAY NOT
  REPORT WEATHER SUCH AS PRECIPITATION AND FOG.

KYZ079-080-083-085-087-088-110-112-115-119-120-282000
...EASTERN KENTUCKY...

CITY           SKY/WX    TMP DP  RH WIND       PRES   REMARKS
JACKSON        SUNNY     79  48  33 VRB6G21   29.87F
LONDON         SUNNY     79  42  26 SW18      29.87F
SOMERSET*      CLOUDY    77  45  31 SW12G24   29.86F
MONTICELLO*    SUNNY     80  47  31 SW20G32   29.86F
WILLIAMSBURG*  CLEAR     79  46  31 SW9G16    29.88F
MIDDLESBORO*   SUNNY     79  47  32 S9        29.91F
HARLAN APT*    CLEAR     79  43  27 S3        29.91F
PIKE CO APT*     N/A     78  44  30 SW3       29.88F
BIG SANDY APT* CLEAR     80  46  30 SW9       29.87F
MOREHEAD APT*  LGT RAIN  70  50  49 W5        29.87R
ASHLAND*       PTSUNNY   79  50  36 S9        29.82F THUNDER
$$

KYZ035-036-041-042-044-050-067-078-099-282000
...CENTRAL KENTUCKY...

CITY           SKY/WX    TMP DP  RH WIND       PRES   REMARKS
MT STERLING*   CLOUDY    68  54  60 CALM      29.85F
FLEMING/MASON* CLOUDY    58  56  93 N5        29.87F
DANVILLE*      CLOUDY    73  46  38 SW9G21    29.83S
LEXINGTON      CLOUDY    68  52  56 N13       29.85S
FRANKFORT      HVY RAIN  60  55  83 NW9G22    29.86R
LOUISVILLE     LGT RAIN  61  57  87 SW8       29.85S FOG
LEBANON*       CLOUDY    72  52  49 W6        29.83S
GLASGOW*       CLOUDY    75  49  39 SW13G21   29.83R
BOWLING GREEN  CLOUDY    78  50  37 W14       29.82R
$$

KYZ091>093-OHZ055-061-077-WVZ005-015-034-035-042-282000
...SOUTHERN OHIO/WEST VIRGINIA...

CITY           SKY/WX    TMP DP  RH WIND       PRES   REMARKS
COVINGTON      RAIN      57  57 100 N3        29.86R FOG
COLUMBUS       LGT RAIN  57  57 100 N6        29.88R
DAYTON         LGT RAIN  57  56  96 SE7       29.88S FOG
WILMINGTON     RAIN      57  56  96 S13       29.86S FOG
HUNTINGTON     MOSUNNY   81  45  28 S14G20    29.84F
CHARLESTON     MOSUNNY   80  40  23 S6        29.87F
PINEVILLE*     SUNNY     81  39  22 MISG      29.95F
BECKLEY        SUNNY     75  46  35 SW8       29.94F
BLUEFIELD      SUNNY     75  47  36 W12G23    29.97F
LOGAN CO APT*    N/A     75  46  35 VRB7G13   29.89F
$$

VAZ002-007-008-TNZ017-027-036-066-071-282000
...SOUTHWEST VIRGINIA/EAST TENNESSEE...

CITY           SKY/WX    TMP DP  RH WIND       PRES   REMARKS
WISE*          SUNNY     73  32  21 S9        29.97F
JONESVILLE*      N/A     79  41  25 SW10      29.93F
ABINGDON*      SUNNY     78  52  40 W10       29.95F
BRISTOL        MOSUNNY   79  43  27 W6        29.92F
MORRISTOWN*    CLEAR     79  39  24 VRB7G14   29.91F
SEVIERVILLE*   CLEAR     82  39  21 W9        29.89F
KNOXVILLE      MOSUNNY   80  43  26 SW13      29.90F
OAK RIDGE      SUNNY     81  44  27 S8        29.92F
CROSSVILLE     SUNNY     77  44  30 W8        29.95F
NASHVILLE      MOSUNNY   83  46  27 SW12G23   29.87F
$$

...KEY TO REMARKS...
VSB - VISIBILITY IN MILES
WCI - WIND CHILL INDEX
HX  - HEAT INDEX

$$




USA.gov is the U.S. government's official web portal to all federal, state and local government web resources and services.